K5LRY-13 Weather Reports


Display with metric or nautical units.
time (UTC)temp
F
wind
direction
speed
MPH
gust
MPH
rain 1hr
in
rain 24hr
in
rain mn
in
humidity
%
barometer
mb
20260902194830 74 237 2.0 9.0 0.00 0.00 0.00 25 1034.5
20260902193318 74 250 2.0 10.0 0.00 0.00 0.00 26 1034.5
20260902191815 74 237 2.0 15.0 0.00 0.00 0.00 26 1034.5
20260902190332 73 258 1.0 14.0 0.00 0.00 0.00 27 1034.6
20260902184846 73 249 1.0 9.0 0.00 0.00 0.00 31 1034.8
20260902183324 72 166 4.0 12.0 0.00 0.00 0.00 35 1035.0
20260902181837 72 181 5.0 14.0 0.00 0.00 0.00 34 1035.1
20260902180323 71 208 1.0 14.0 0.00 0.00 0.00 35 1035.2
20260902174818 70 189 1.0 9.0 0.00 0.00 0.00 41 1035.3
20260902173313 69 183 1.0 8.0 0.00 0.00 0.00 37 1035.4
20260902171826 70 264 1.0 7.0 0.00 0.00 0.00 37 1035.3
20260902170341 70 167 0.0 8.0 0.00 0.00 0.00 39 1035.3
20260902164814 68 163 2.0 9.0 0.00 0.00 0.00 41 1035.3
20260902163329 68 192 1.0 11.0 0.00 0.00 0.00 43 1034.8
20260902161822 67 234 4.0 10.0 0.00 0.00 0.00 42 1035.0
20260902160315 66 214 1.0 8.0 0.00 0.00 0.00 46 1034.6
20260902154830 64 152 2.0 9.0 0.00 0.00 0.00 48 1034.5
20260902153324 62 225 0.0 7.0 0.00 0.00 0.00 53 1034.4
20260902151816 61 266 2.0 8.0 0.00 0.00 0.00 53 1034.5
20260902150329 58 221 0.0 2.0 0.00 0.00 0.00 62 1034.3
20260902144823 53 222 0.0 4.0 0.00 0.00 0.00 73 1034.1
20260902143318 49 313 0.0 0.0 0.00 0.00 0.00 86 1033.9
20260902141832 47 314 0.0 0.0 0.00 0.00 0.00 91 1034.0
20260902140346 46 313 0.0 0.0 0.00 0.00 0.00 91 1033.7
20260902134819 45 314 0.0 0.0 0.00 0.00 0.00 90 1033.6
20260902133335 45 313 0.0 0.0 0.00 0.00 0.00 90 1033.4
20260902131827 45 313 0.0 0.0 0.00 0.00 0.00 89 1033.3
20260902130322 44 314 0.0 0.0 0.00 0.00 0.00 89 1033.3
20260902124837 44 314 0.0 0.0 0.00 0.00 0.00 88 1033.3
20260902123331 45 314 0.0 0.0 0.00 0.00 0.00 88 1033.3
20260902121824 45 314 0.0 0.0 0.00 0.00 0.00 88 1033.1
20260902120318 45 314 0.0 0.0 0.00 0.00 0.00 87 1033.0
20260902114833 45 313 0.0 0.0 0.00 0.00 0.00 87 1033.0
20260902113334 45 313 0.0 0.0 0.00 0.00 0.00 87 1033.0
20260902111819 45 313 0.0 0.0 0.00 0.00 0.00 87 1033.0
20260902110318 45 314 0.0 0.0 0.00 0.00 0.00 87 1033.0
20260902104834 46 313 0.0 0.0 0.00 0.00 0.00 87 1033.0
20260902103327 46 314 0.0 0.0 0.00 0.00 0.00 87 1033.0
20260902101820 46 313 0.0 0.0 0.00 0.00 0.00 88 1033.1
20260902100314 47 314 0.0 0.0 0.00 0.00 0.00 88 1033.0
20260902094826 47 314 0.0 0.0 0.00 0.00 0.00 88 1033.1
20260902093313 47 314 0.0 0.0 0.00 0.00 0.00 88 1033.2
20260902091831 47 313 0.0 0.0 0.00 0.01 0.00 88 1033.2
20260902090318 47 313 0.0 0.0 0.00 0.01 0.00 88 1033.1
20260902084812 47 313 0.0 0.0 0.00 0.01 0.00 87 1033.2
20260902083326 47 314 0.0 0.0 0.00 0.01 0.00 87 1033.3
20260902081820 47 314 0.0 0.0 0.00 0.01 0.00 86 1033.3
20260902080312 47 314 0.0 0.0 0.00 0.01 0.00 85 1033.4
20260902074827 47 313 0.0 0.0 0.00 0.01 0.00 84 1033.6
20260902073322 47 313 0.0 0.0 0.00 0.01 0.00 84 1033.6
20260902071815 48 313 0.0 0.0 0.00 0.01 0.00 83 1033.6
20260902070331 48 314 0.0 0.0 0.00 0.01 0.00 83 1033.6
20260902064824 48 314 0.0 0.0 0.00 0.01 0.00 82 1033.6
20260902063339 48 314 0.0 0.0 0.00 0.01 0.00 82 1033.5
20260902061826 49 313 0.0 0.0 0.00 0.01 0.01 81 1033.3
20260902060348 49 313 0.0 0.0 0.00 0.01 0.01 81 1033.4
20260902054813 49 313 0.0 0.0 0.00 0.01 0.01 80 1033.4
20260902053335 50 314 0.0 0.0 0.00 0.01 0.01 80 1033.6
20260902051826 50 313 0.0 0.0 0.00 0.01 0.01 80 1033.5
20260902050320 50 313 0.0 0.0 0.00 0.01 0.01 80 1033.4
20260902044814 50 313 0.0 0.0 0.00 0.01 0.01 79 1033.5
20260902043330 50 313 0.0 0.0 0.00 0.01 0.01 78 1033.6
20260902041815 51 314 0.0 0.0 0.00 0.01 0.01 77 1033.5
20260902040316 51 314 0.0 0.0 0.00 0.01 0.01 75 1033.4
20260902034814 52 314 0.0 0.0 0.00 0.01 0.01 74 1033.4
20260902033328 53 313 0.0 0.0 0.00 0.01 0.01 73 1033.3
20260902031813 53 313 0.0 0.0 0.00 0.01 0.01 71 1033.1
20260902030328 54 313 0.0 0.0 0.00 0.01 0.01 68 1032.8
20260902024821 56 314 0.0 0.0 0.00 0.01 0.01 65 1032.5
20260902023317 57 313 0.0 0.0 0.00 0.01 0.01 60 1032.5
20260902021830 59 313 0.0 0.0 0.00 0.01 0.01 58 1032.4
20260902020324 62 313 0.0 0.0 0.00 0.01 0.01 54 1032.2
20260902014819 64 314 0.0 0.0 0.00 0.01 0.01 50 1032.2
20260902013313 66 314 0.0 0.0 0.00 0.01 0.01 45 1032.2
20260902011828 69 313 0.0 2.0 0.00 0.01 0.01 38 1032.4
20260902010314 72 313 0.0 3.0 0.00 0.01 0.01 32 1032.3
20260902004837 75 314 1.0 3.0 0.00 0.01 0.01 29 1032.2
20260902003351 75 313 1.0 4.0 0.00 0.01 0.01 30 1032.3
20260902001822 74 359 0.0 2.0 0.00 0.01 0.01 30 1032.4
20260902000338 71 359 0.0 2.0 0.00 0.01 0.01 34 1032.4
20260901234831 68 359 1.0 5.0 0.00 0.01 0.01 40 1032.5
20260901233326 67 266 0.0 3.0 0.00 0.01 0.01 47 1032.8
20260901231819 66 250 1.0 10.0 0.00 0.01 0.01 49 1033.0
20260901230333 66 207 3.0 8.0 0.00 0.01 0.01 50 1033.3
20260901224827 66 274 3.0 12.0 0.00 0.01 0.01 51 1033.2
20260901223315 68 256 1.0 9.0 0.00 0.01 0.01 44 1033.0
20260901221855 69 253 2.0 9.0 0.00 0.01 0.01 42 1032.9
20260901220349 69 268 2.0 8.0 0.00 0.01 0.01 43 1033.0
20260901214820 70 262 3.0 12.0 0.00 0.01 0.01 42 1033.0
20260901213316 71 264 3.0 9.0 0.00 0.01 0.01 39 1033.0
20260901211829 72 272 2.0 7.0 0.00 0.01 0.01 38 1033.1
20260901210323 72 291 3.0 10.0 0.00 0.01 0.01 38 1033.3
20260901204820 73 249 4.0 13.0 0.00 0.01 0.01 34 1033.6
20260901203335 72 262 3.0 10.0 0.00 0.01 0.01 42 1033.5
20260901201827 71 239 1.0 5.0 0.00 0.01 0.01 42 1033.8
20260901200321 70 266 3.0 10.0 0.00 0.01 0.01 43 1033.9